Back to catalog

STARLINK-34533

AliveCommunicationsVLEO
NORAD 64715·PAYLOAD·🇺🇸 United States

Launched Jun 28, 2025 from Vandenberg Space Force Base

Loading…

Next Passes (next 24 hours)

TLE

FreshSource: CelesTrak SupGP

Epoch: Sep 14, 2026, 15:01 UTC

1 64715C 25142V   26257.62618056  .00054630  00000+0  19015-2 0  2575
2 64715  70.0010 196.5293 0003592 270.6836 338.4640 15.29531295    10

Track STARLINK-34533 in real time with AllMySat

Download on the App Store